When you browse on this site, cookies collect data to enhance your experience and personalize the content and advertising you see.
Visit our Privacy Policy to learn more. By continuing to use the site, you agree to this use of cookies and data.
  • In Hungary
  • List of Countries
  • For 7 days
  • Water Temperature
  • Satellite Maps
  • Weather Map
  • News
  • Weather Widgets
  • user-avatar
    Login

    Hourly Weather Miranda de Ebro

    Today, 17 November, Saturday

    Time Temperature Precipitation Wind Pressure Humidity
    00:00 +12°C° 0 mm 2 mps 719 mmHg 91%
    01:00 +10°C° 0 mm 2 mps 718 mmHg 91%
    02:00 +10°C° 0 mm 2 mps 718 mmHg 91%
    03:00 +10°C° 0 mm 2 mps 718 mmHg 92%
    04:00 +10°C° 0 mm 2 mps 718 mmHg 92%
    05:00 +10°C° 0 mm 2 mps 718 mmHg 91%
    06:00 +10°C° 0 mm 2 mps 718 mmHg 91%
    07:00 +12°C° 0 mm 2 mps 718 mmHg 88%
    08:00 +12°C° 0 mm 2 mps 718 mmHg 84%
    09:00 +13°C° 0 mm 2 mps 718 mmHg 80%
    10:00 +15°C° 0 mm 2 mps 717 mmHg 74%
    11:00 +16°C° 0 mm 2 mps 717 mmHg 68%
    12:00 +17°C° 0 mm 2 mps 717 mmHg 61%
    13:00 +18°C° 0 mm 2 mps 717 mmHg 61%
    14:00 +18°C° 0 mm 2 mps 716 mmHg 60%
    15:00 +18°C° 0 mm 2 mps 716 mmHg 59%
    16:00 +16°C° 0 mm 2 mps 715 mmHg 67%
    17:00 +14°C° 0 mm 2 mps 715 mmHg 75%
    18:00 +13°C° 0 mm 1 mps 715 mmHg 83%
    19:00 +12°C° 0 mm 2 mps 714 mmHg 84%
    20:00 +12°C° 0 mm 2 mps 714 mmHg 86%
    21:00 +10°C° 0 mm 2 mps 714 mmHg 87%
    22:00 +10°C° 0 mm 2 mps 714 mmHg 88%
    23:00 +10°C° 0 mm 2 mps 713 mmHg 89%

    Tomorrow, 18 November, Sunday

    Time Temperature Precipitation Wind Pressure Humidity
    00:00 +10°C° 0 mm 2 mps 713 mmHg 89%
    01:00 +9°C° 0 mm 2 mps 713 mmHg 90%
    02:00 +9°C° 0 mm 2 mps 712 mmHg 90%
    03:00 +9°C° 0 mm 2 mps 712 mmHg 91%
    04:00 +9°C° 0 mm 2 mps 712 mmHg 91%
    05:00 +9°C° 0 mm 3 mps 712 mmHg 91%
    06:00 +9°C° 0 mm 3 mps 712 mmHg 91%
    07:00 +9°C° 0 mm 3 mps 712 mmHg 88%
    08:00 +10°C° 0 mm 3 mps 712 mmHg 86%
    09:00 +10°C° 0 mm 4 mps 712 mmHg 83%
    10:00 +11°C° 0.1 mm 4 mps 712 mmHg 81%
    11:00 +11°C° 0.1 mm 4 mps 711 mmHg 78%
    12:00 +10°C° 0.1 mm 5 mps 711 mmHg 76%
    13:00 +10°C° 0.1 mm 5 mps 711 mmHg 77%
    14:00 +10°C° 0.1 mm 5 mps 711 mmHg 78%
    15:00 +10°C° 0.1 mm 5 mps 710 mmHg 79%
    16:00 +10°C° 0.1 mm 4 mps 710 mmHg 82%
    17:00 +10°C° 0.1 mm 4 mps 710 mmHg 85%
    18:00 +9°C° 0.1 mm 3 mps 710 mmHg 88%
    19:00 +9°C° 0.3 mm 3 mps 711 mmHg 89%
    20:00 +8°C° 0.3 mm 4 mps 711 mmHg 89%
    21:00 +8°C° 0.3 mm 4 mps 711 mmHg 90%
    22:00 +8°C° 0.3 mm 4 mps 711 mmHg 90%
    23:00 +8°C° 0.3 mm 4 mps 711 mmHg 90%

    Day after tomorrow, 19 November, Monday

    Time Temperature Precipitation Wind Pressure Humidity
    00:00 +8°C° 0.3 mm 4 mps 711 mmHg 90%
    01:00 +9°C° 0.1 mm 3 mps 711 mmHg 90%
    02:00 +9°C° 0.1 mm 3 mps 710 mmHg 91%
    03:00 +8°C° 0.1 mm 2 mps 710 mmHg 92%
    04:00 +8°C° 0 mm 2 mps 710 mmHg 92%
    05:00 +8°C° 0 mm 2 mps 710 mmHg 92%
    06:00 +8°C° 0 mm 2 mps 710 mmHg 92%
    07:00 +9°C° 0 mm 1 mps 710 mmHg 90%
    08:00 +10°C° 0 mm 1 mps 710 mmHg 87%
    09:00 +11°C° 0 mm 1 mps 710 mmHg 84%
    10:00 +12°C° 0 mm 1 mps 710 mmHg 79%
    11:00 +13°C° 0 mm 1 mps 710 mmHg 74%
    12:00 +14°C° 0 mm 1 mps 709 mmHg 69%
    13:00 +14°C° 0 mm 1 mps 709 mmHg 69%
    14:00 +14°C° 0 mm 2 mps 709 mmHg 70%
    15:00 +14°C° 0 mm 2 mps 708 mmHg 70%
    16:00 +13°C° 0 mm 2 mps 708 mmHg 76%
    17:00 +10°C° 0 mm 2 mps 708 mmHg 82%
    18:00 +9°C° 0 mm 2 mps 708 mmHg 88%
    19:00 +9°C° 0 mm 2 mps 708 mmHg 88%
    20:00 +8°C° 0 mm 2 mps 708 mmHg 88%
    21:00 +8°C° 0 mm 2 mps 708 mmHg 88%
    22:00 +8°C° 0 mm 2 mps 708 mmHg 86%
    23:00 +7°C° 0 mm 2 mps 708 mmHg 85%

    20 November, Tuesday

    Time Temperature Precipitation Wind Pressure Humidity
    00:00 +7°C° 0 mm 2 mps 708 mmHg 83%
    01:00 +5°C° 0 mm 3 mps 708 mmHg 83%
    02:00 +5°C° 0 mm 3 mps 708 mmHg 83%
    03:00 +4°C° 0 mm 3 mps 708 mmHg 83%
    04:00 +4°C° 0 mm 3 mps 708 mmHg 83%
    05:00 +4°C° 0 mm 3 mps 708 mmHg 83%
    06:00 +3°C° 0 mm 3 mps 708 mmHg 83%
    07:00 +3°C° 0 mm 3 mps 709 mmHg 80%
    08:00 +4°C° 0 mm 3 mps 709 mmHg 77%
    09:00 +4°C° 0 mm 3 mps 709 mmHg 74%
    10:00 +4°C° 0 mm 3 mps 709 mmHg 70%
    11:00 +5°C° 0 mm 3 mps 709 mmHg 66%
    12:00 +6°C° 0 mm 2 mps 709 mmHg 62%
    13:00 +6°C° 0 mm 2 mps 709 mmHg 63%
    14:00 +6°C° 0 mm 2 mps 709 mmHg 63%
    15:00 +6°C° 0 mm 2 mps 709 mmHg 64%
    16:00 +5°C° 0 mm 2 mps 709 mmHg 70%
    17:00 +4°C° 0 mm 2 mps 709 mmHg 76%
    18:00 +4°C° 0 mm 1 mps 709 mmHg 82%
    19:00 +4°C° 0 mm 1 mps 710 mmHg 84%
    20:00 +4°C° 0 mm 1 mps 710 mmHg 86%
    21:00 +3°C° 0 mm 1 mps 711 mmHg 88%
    22:00 +3°C° 0 mm 1 mps 711 mmHg 89%
    23:00 +3°C° 0 mm 1 mps 711 mmHg 89%

    21 November, Wednesday

    Time Temperature Precipitation Wind Pressure Humidity
    00:00 +2°C° 0 mm 1 mps 711 mmHg 90%
    01:00 +2°C° 0 mm 1 mps 711 mmHg 90%
    02:00 +2°C° 0 mm 1 mps 711 mmHg 90%
    03:00 +2°C° 0 mm 1 mps 711 mmHg 89%
    04:00 +2°C° 0 mm 1 mps 711 mmHg 88%
    05:00 +2°C° 0 mm 1 mps 711 mmHg 88%
    06:00 +2°C° 0 mm 1 mps 711 mmHg 87%
    07:00 +3°C° 0 mm 1 mps 711 mmHg 81%
    08:00 +4°C° 0 mm 1 mps 712 mmHg 76%
    09:00 +5°C° 0 mm 1 mps 712 mmHg 71%
    10:00 +6°C° 0 mm 1 mps 713 mmHg 65%
    11:00 +7°C° 0 mm 1 mps 713 mmHg 60%
    12:00 +8°C° 0 mm 2 mps 713 mmHg 54%
    13:00 +8°C° 0 mm 2 mps 713 mmHg 55%
    14:00 +8°C° 0 mm 2 mps 713 mmHg 56%
    15:00 +8°C° 0 mm 2 mps 713 mmHg 56%
    16:00 +7°C° 0 mm 2 mps 713 mmHg 63%
    17:00 +5°C° 0 mm 2 mps 713 mmHg 69%
    18:00 +4°C° 0 mm 2 mps 713 mmHg 75%
    19:00 +4°C° 0 mm 2 mps 714 mmHg 77%
    20:00 +3°C° 0 mm 2 mps 714 mmHg 78%
    21:00 +3°C° 0 mm 2 mps 714 mmHg 80%
    22:00 +3°C° 0 mm 2 mps 714 mmHg 80%
    23:00 +3°C° 0 mm 2 mps 714 mmHg 80%

    22 November, Thursday

    Time Temperature Precipitation Wind Pressure Humidity
    00:00 +3°C° 0 mm 2 mps 714 mmHg 81%
    01:00 +3°C° 0 mm 2 mps 714 mmHg 81%
    02:00 +2°C° 0 mm 3 mps 714 mmHg 82%
    03:00 +2°C° 0 mm 3 mps 714 mmHg 82%
    04:00 +2°C° 0 mm 3 mps 715 mmHg 82%
    05:00 +2°C° 0 mm 3 mps 715 mmHg 83%
    06:00 +2°C° 0 mm 3 mps 715 mmHg 83%
    07:00 +3°C° 0 mm 3 mps 715 mmHg 80%
    08:00 +4°C° 0 mm 3 mps 716 mmHg 76%
    09:00 +5°C° 0 mm 4 mps 716 mmHg 73%
    10:00 +6°C° 0 mm 4 mps 717 mmHg 69%
    11:00 +7°C° 0 mm 4 mps 717 mmHg 64%
    12:00 +8°C° 0 mm 5 mps 717 mmHg 60%
    13:00 +10°C° 0 mm 4 mps 717 mmHg 59%
    14:00 +10°C° 0 mm 4 mps 717 mmHg 59%
    15:00 +10°C° 0 mm 4 mps 717 mmHg 58%
    16:00 +8°C° 0 mm 3 mps 717 mmHg 65%
    17:00 +7°C° 0 mm 3 mps 717 mmHg 71%
    18:00 +6°C° 0 mm 2 mps 718 mmHg 77%
    19:00 +5°C° 0 mm 2 mps 718 mmHg 78%
    20:00 +5°C° 0 mm 2 mps 718 mmHg 80%
    21:00 +3°C° 0 mm 3 mps 719 mmHg 81%
    22:00 +3°C° 0 mm 3 mps 719 mmHg 81%
    23:00 +4°C° 0 mm 2 mps 719 mmHg 82%
    Show more